カタログに戻る

COSMOS 2070

運用中軍事LEO
NORAD 20555·PAYLOAD·🇷🇺 Russia

打ち上げ Apr 6, 1990 から Plesetsk Cosmodrome

Loading…

次のパス (今後24時間)

TLE

最新Source: Space-Track

元期: Sep 14, 2026, 09:44 UTC

1 20555U 90029G   26257.40560591 -.00000029  00000-0 -79920-4 0  9993
2 20555  73.9803  61.2707 0013486 195.5827 188.3417 12.52806511666585

AllMySatでCOSMOS 2070をリアルタイム追跡

Download on the App Store